sat.trackr.live / text

‹ back to catalog

STARLINK-35886

NORAD 66838 · 2025-280T

PAYLOAD ACTIVE UNKNOWN

§ Identity

Operator
Country
US
Launch date
2025-12-02
Launch site
AFWTR
Launch vehicle
Mass (kg)
RCS (m²)

Purposes: comms

External: N2YO · Heavens-Above · Gunter

§ Orbital elements

Epoch: 2026-05-25T00:42:35.301600Z

Period
96.11 min
Inclination
70.0005°
Eccentricity
0.0003703
Mean motion
14.98321008 rev/d
Perigee alt
569.5 km
Apogee alt
574.7 km
Semi-major
6,950.2 km
B*
-1.8537e-4
RAAN
141.8633°
Arg perigee
268.3858°
Mean anomaly
91.6877°
Rev number
2,751

§ Raw data

STARLINK-358861 66838U 25280T   26145.02957525 -.00002304  00000+0 -18537-3 0  99982 66838  70.0005 141.8633 0003703 268.3858  91.6877 14.98321008 27513

JSON: /api/v1/satellites/66838 · /tle

For live sub-satellite position, see the globe view (requires WebGL).

§ Visibility from observer

Set your observer location to see the next 7 days of passes ≥ 10°. The values pass through the URL so the page stays shareable.

No JS? Fill the form by hand. The geolocation button needs JavaScript.